Weather History for KHWY - June, 2014

Change the Weather History Date:

Saturday, June 7, 2014

  Actual Average (KHEF) Record (KHEF)
Temperature  
Mean Temperature 67 °F -  
Max Temperature 84 °F 76 °F 96 °F (2008)
Min Temperature 50 °F 55 °F 42 °F (1998)
Cooling Degree Days 2    
Growing Degree Days 17 (Base 50)    
Moisture  
Dew Point 60 °F    
Average Humidity 79    
Maximum Humidity 100    
Minimum Humidity 48    
Precipitation  
Precipitation 0.00 in - - ()
Sea Level Pressure  
Sea Level Pressure 30.00 in    
Wind  
Wind Speed 1 mph (NW)    
Max Wind Speed 6 mph    
Max Gust Speed -    
Visibility 9 miles    
Events Fog    
Averages and records for this station are not official NWS values.
T = Trace of Precipitation, MM = Missing Value Source: NWS Daily Summary

Daily Weather History Graph

Daily Weather History Graph

Search for Another Location

Airport or City:

Trip Planner

Search our weather history database for the weather conditions in past years. The results will help you decide how hot, cold, wet, or windy it might be!

Date:

Astronomy

Jun. 07, 2014 Rise Set
Actual Time 5:46 AM EDT 8:33 PM EDT
Civil Twilight 5:15 AM EDT 9:04 PM EDT
Nautical Twilight 4:35 AM EDT 9:44 PM EDT
Astronomical Twilight 3:50 AM EDT 10:29 PM EDT
Moon 2:52 PM EDT (6/7) 2:03 AM EDT (6/7)
Length of Visible Light 15h 49m
Length of Day
14h 46m
Waxing Gibbous, 67% of the Moon is Illuminated
Jun 7
Waxing Gibbous
Jun 13
Full
Jun 19
Last Quarter
Jun 27
New
Jul 5
First Quarter

Hourly Weather History & Observations

Time (EDT) Temp. Heat Index Dew Point Humidity Pressure Visibility Wind Dir Wind Speed Gust Speed Precip Events Conditions
12:15 AM 55.9 °F - 55.9 °F 100% 30.00 in 10.0 mi Calm Calm - N/A   Clear
12:35 AM 55.8 °F - 55.8 °F 100% 30.00 in 10.0 mi Calm Calm - N/A   Clear
12:55 AM 55.4 °F - 55.4 °F 100% 29.99 in 2.5 mi Calm Calm - N/A   Clear
1:15 AM 54.7 °F - 54.7 °F 100% 29.99 in 5.0 mi Calm Calm - N/A   Clear
1:35 AM 54.9 °F - 54.9 °F 100% 29.99 in 10.0 mi Calm Calm - N/A   Clear
1:55 AM 55.6 °F - 55.6 °F 100% 29.99 in 10.0 mi Calm Calm - N/A   Clear
2:15 AM 53.8 °F - 53.8 °F 100% 30.00 in 10.0 mi Calm Calm - N/A   Clear
2:35 AM 53.4 °F - 53.4 °F 100% 30.00 in 3.0 mi Calm Calm - N/A   Clear
2:55 AM 53.1 °F - 53.1 °F 100% 30.00 in 2.5 mi Calm Calm - N/A   Clear
3:15 AM 52.5 °F - 52.5 °F 100% 30.00 in 5.0 mi Calm Calm - N/A   Clear
3:35 AM 52.3 °F - 52.3 °F 100% 30.00 in 0.8 mi Calm Calm - N/A   Mist
3:55 AM 51.8 °F - 51.8 °F 100% 30.00 in 0.5 mi Calm Calm - N/A Fog Fog
4:15 AM 51.6 °F - 51.6 °F 100% 30.00 in 1.2 mi Calm Calm - N/A   Mist
4:35 AM 51.3 °F - 51.3 °F 100% 29.99 in 3.0 mi Calm Calm - N/A   Clear
4:55 AM 52.3 °F - 52.3 °F 100% 29.99 in 2.0 mi Calm Calm - N/A   Clear
5:15 AM 52.0 °F - 52.0 °F 100% 30.00 in 7.0 mi Calm Calm - N/A   Clear
5:35 AM 51.8 °F - 51.8 °F 100% 30.00 in 3.0 mi Calm Calm - N/A   Clear
5:55 AM 50.9 °F - 50.9 °F 100% 30.01 in 1.8 mi Calm Calm - N/A   Mist
6:15 AM 52.2 °F - 52.2 °F 100% 30.02 in 7.0 mi Calm Calm - N/A   Clear
6:35 AM 54.5 °F - 54.5 °F 100% 30.02 in 10.0 mi Calm Calm - N/A   Clear
6:55 AM 56.7 °F - 56.7 °F 100% 30.03 in 10.0 mi Calm Calm - N/A   Clear
7:15 AM 58.3 °F - 58.3 °F 100% 30.03 in 10.0 mi Calm Calm - N/A   Clear
7:55 AM 62.6 °F - 61.0 °F 94% 30.04 in 10.0 mi Calm Calm - N/A   Clear
8:15 AM 65.3 °F - 62.4 °F 90% 30.05 in 10.0 mi Calm Calm - N/A   Clear
8:35 AM 67.5 °F - 63.9 °F 88% 30.04 in 10.0 mi Calm Calm - N/A   Clear
8:55 AM 70.0 °F - 63.7 °F 80% 30.05 in 10.0 mi Calm Calm - N/A   Clear
9:15 AM 71.8 °F - 63.7 °F 76% 30.05 in 10.0 mi Calm Calm - N/A   Clear
9:35 AM 73.0 °F - 65.1 °F 76% 30.05 in 10.0 mi Calm Calm - N/A   Clear
9:55 AM 74.5 °F - 63.0 °F 67% 30.05 in 10.0 mi Calm Calm - N/A   Clear
10:15 AM 75.7 °F - 63.0 °F 64% 30.05 in 10.0 mi Calm Calm - N/A   Clear
10:35 AM 77.0 °F - 62.4 °F 61% 30.06 in 10.0 mi SSW 3.5 mph - N/A   Scattered Clouds
10:55 AM 78.1 °F - 61.9 °F 57% 30.06 in 10.0 mi Calm Calm - N/A   Scattered Clouds
11:15 AM 78.3 °F - 63.0 °F 59% 30.07 in 10.0 mi SW 4.6 mph - N/A   Clear
11:35 AM 78.3 °F - 61.5 °F 56% 30.07 in 10.0 mi Calm Calm - N/A   Scattered Clouds
11:55 AM 78.4 °F - 60.6 °F 54% 30.06 in 10.0 mi Calm Calm - N/A   Mostly Cloudy
12:15 PM 78.4 °F - 62.8 °F 58% 30.05 in 10.0 mi ENE 5.8 mph - N/A   Mostly Cloudy
12:35 PM 80.2 °F 81.3 °F 61.7 °F 53% 30.05 in 10.0 mi SW 4.6 mph - N/A   Mostly Cloudy
1:15 PM 80.8 °F 81.9 °F 62.1 °F 53% 30.04 in 10.0 mi SW 4.6 mph - N/A   Mostly Cloudy
1:35 PM 80.4 °F 81.5 °F 61.7 °F 53% 30.03 in 10.0 mi Calm Calm - N/A   Scattered Clouds
1:55 PM 81.9 °F 83.1 °F 63.1 °F 53% 30.02 in 10.0 mi Calm Calm - N/A   Scattered Clouds
2:15 PM 82.2 °F 83.3 °F 62.8 °F 52% 30.01 in 10.0 mi Calm Calm - N/A   Mostly Cloudy
2:35 PM 83.1 °F 84.4 °F 64.0 °F 52% 30.01 in 10.0 mi SW 5.8 mph - N/A   Scattered Clouds
2:55 PM 80.8 °F 81.8 °F 61.5 °F 52% 30.00 in 10.0 mi North 3.5 mph - N/A   Clear
3:15 PM 82.2 °F 83.3 °F 63.1 °F 52% 30.00 in 10.0 mi North 4.6 mph - N/A   Scattered Clouds
3:35 PM 82.9 °F 84.4 °F 64.2 °F 53% 29.99 in 10.0 mi North 5.8 mph - N/A   Scattered Clouds
3:55 PM 81.1 °F 82.5 °F 63.7 °F 55% 29.98 in 10.0 mi North 4.6 mph - N/A   Clear
4:15 PM 83.5 °F 84.7 °F 63.7 °F 51% 29.98 in 10.0 mi Calm Calm - N/A   Scattered Clouds
4:35 PM 83.5 °F 84.9 °F 64.4 °F 52% 29.97 in 10.0 mi NW 4.6 mph - N/A   Clear
4:55 PM 84.7 °F 85.6 °F 63.0 °F 48% 29.97 in 10.0 mi Calm Calm - N/A   Clear
5:15 PM 83.8 °F 85.1 °F 63.9 °F 51% 29.97 in 10.0 mi ESE 5.8 mph - N/A   Clear
5:35 PM 83.1 °F 84.0 °F 63.0 °F 50% 29.97 in 10.0 mi East 3.5 mph - N/A   Mostly Cloudy
5:55 PM 82.6 °F 83.8 °F 63.1 °F 52% 29.97 in 10.0 mi Calm Calm - N/A   Scattered Clouds
6:15 PM 82.2 °F 83.3 °F 62.8 °F 52% 29.96 in 10.0 mi ESE 3.5 mph - N/A   Scattered Clouds
6:35 PM 82.4 °F 83.7 °F 63.5 °F 53% 29.95 in 10.0 mi Calm Calm - N/A   Clear
6:55 PM 81.1 °F 82.4 °F 63.0 °F 54% 29.96 in 10.0 mi Calm Calm - N/A   Clear
7:15 PM 80.1 °F 81.4 °F 62.6 °F 55% 29.95 in 10.0 mi Calm Calm - N/A   Clear
7:35 PM 78.4 °F - 68.9 °F 72% 29.96 in 10.0 mi Calm Calm - N/A   Clear
7:55 PM 74.8 °F - 68.2 °F 80% 29.97 in 10.0 mi Calm Calm - N/A   Clear
8:15 PM 72.0 °F - 66.6 °F 83% 29.97 in 10.0 mi Calm Calm - N/A   Clear
8:35 PM 68.5 °F - 65.3 °F 89% 29.96 in 10.0 mi Calm Calm - N/A   Clear
8:55 PM 67.6 °F - 64.6 °F 90% 29.96 in 10.0 mi Calm Calm - N/A   Clear
9:15 PM 64.8 °F - 63.5 °F 96% 29.97 in 10.0 mi Calm Calm - N/A   Clear
9:35 PM 62.8 °F - 61.9 °F 97% 29.98 in 10.0 mi Calm Calm - N/A   Clear
9:55 PM 62.8 °F - 62.6 °F 99% 29.98 in 10.0 mi Calm Calm - N/A   Clear
10:15 PM 60.6 °F - 60.6 °F 100% 29.98 in 10.0 mi Calm Calm - N/A   Clear
10:35 PM 61.5 °F - 61.5 °F 100% 29.97 in 10.0 mi Calm Calm - N/A   Clear
10:55 PM 59.9 °F - 59.9 °F 100% 29.97 in 10.0 mi Calm Calm - N/A   Clear
11:15 PM 59.2 °F - 59.2 °F 100% 29.98 in 10.0 mi Calm Calm - N/A   Clear
11:35 PM 58.5 °F - 58.5 °F 100% 29.98 in 10.0 mi Calm Calm - N/A   Clear
11:55 PM 58.5 °F - 58.5 °F 100% 29.98 in 10.0 mi Calm Calm - N/A   Clear